Location: Brno
(49.2000°N, 16.6330°E)
Time: 20:15:56
(UTC+02:00)

Explorer 11/Cluster Stage 4 - Pass Details

Date: 26 July 2021
Orbit: 467 x 1257 km, 28.8° (Epoch: 17 September)

Event Time Altitude Azimuth Distance (km) Brightness Sun altitude
Rises 13:03:32 0° 220° (SW) 4,049 10.6 60.1°
Reaches altitude 10° 13:09:12 10° 188° (S) 2,914 10.2 60.1°
Maximum altitude 13:10:58 11° 174° (S) 2,773 10.1 60.0°
Drops below altitude 10° 13:12:41 10° 159° (SSE) 2,779 10.0 60.0°
Sets 13:17:35 0° 126° (SE) 3,501 10.1 59.9°
